This is the latest recevied weather packets stored in our database for station/object EA5LU-10. If no packets are shown the sender has not sent any weather packets the latest 10 day(s).
| Time | Temp. | Humidity | Pressure | Rain* | Wind** | Luminosity | Snow |
|---|---|---|---|---|---|---|---|
| 1777450631 | 22.22° C | 65% | 1002.5 hPa | - | - | - | - |
| 1777449730 | 21.11° C | 69% | 1002.5 hPa | - | - | - | - |
| 1777448829 | 21.11° C | 69% | 1002.6 hPa | - | - | - | - |
| 1777447928 | 20° C | 72% | 1002.6 hPa | - | - | - | - |
| 1777447028 | 18.89° C | 75% | 1002.5 hPa | - | - | - | - |
| 1777446127 | 18.33° C | 76% | 1002.6 hPa | - | - | - | - |
| 1777445226 | 17.22° C | 79% | 1002.4 hPa | - | - | - | - |
| 1777444325 | 17.22° C | 79% | 1002.2 hPa | - | - | - | - |
| 1777443424 | 17.22° C | 78% | 1002.1 hPa | - | - | - | - |
| 1777442524 | 17.22° C | 78% | 1001.8 hPa | - | - | - | - |
| 1777441623 | 17.22° C | 79% | 1001.6 hPa | - | - | - | - |
| 1777440722 | 16.67° C | 80% | 1001.5 hPa | - | - | - | - |
| 1777439821 | 16.67° C | 80% | 1001.5 hPa | - | - | - | - |
| 1777438920 | 16.67° C | 79% | 1001.4 hPa | - | - | - | - |
| 1777438019 | 17.22° C | 79% | 1001.3 hPa | - | - | - | - |
| 1777437119 | 17.22° C | 79% | 1001.2 hPa | - | - | - | - |
| 1777436218 | 17.22° C | 79% | 1001.1 hPa | - | - | - | - |
| 1777435317 | 17.22° C | 79% | 1001 hPa | - | - | - | - |
| 1777434416 | 17.22° C | 79% | 1001.1 hPa | - | - | - | - |
| 1777433515 | 17.22° C | 79% | 1001.1 hPa | - | - | - | - |
| 1777432615 | 17.22° C | 78% | 1001.2 hPa | - | - | - | - |
| 1777431714 | 17.78° C | 78% | 1001.3 hPa | - | - | - | - |
| 1777430813 | 17.78° C | 77% | 1001.1 hPa | - | - | - | - |
| 1777429912 | 17.78° C | 77% | 1001.2 hPa | - | - | - | - |
| 1777429011 | 17.78° C | 76% | 1001.2 hPa | - | - | - | - |
* Rain since midnight (hover to see other rain measurements)
** Current wind speed in m/s (hover to see current wind gust speed)